Location: Kuffner-Sternwarte
(48.2130°N, 16.2960°E)
Time: 02:18:09
(UTC+02:00)

COROT - Pass Details

Date: 21 May 2018
Orbit: 599 x 890 km, 90.0° (Epoch: 14 August)

Event Time Altitude Azimuth Distance (km) Brightness Sun altitude
Rises 23:25:06 0° 345° (NNW) 3,031 10.7 -18.8°
Reaches altitude 10° 23:28:05 10° 324° (NW) 2,166 9.5 -19.0°
Maximum altitude 23:30:55 16° 288° (WNW) 1,843 8.4 -19.1°
Drops below altitude 10° 23:33:52 10° 251° (WSW) 2,267 8.4 -19.3°
Sets 23:37:07 0° 231° (SW) 3,251 9.0 -19.5°
Enters shadow 23:37:10 - 231° (SW) 3,270 9.1 -19.5°
